Terug naar catalogus

FLOCK 4G 28

ActiefWetenschapSSO
NORAD 62634·PAYLOAD·🇺🇸 United States

Gelanceerd Jan 14, 2025 vanaf Vandenberg Space Force Base

Loading…

Volgende Passages (komende 24 uur)

TLE

VersSource: CelesTrak SupGP

Epoch: Sep 11, 2026, 04:44 UTC

1 62634C 25009AB  26254.19759259  .00013620  00000+0  38779-3 0  2545
2 62634  97.3995 339.1322 0002043  45.6486 259.8658 15.36148384    17

Volg FLOCK 4G 28 in realtime met AllMySat

Download on the App Store